Location: Seattle
(47.6064°N, 122.3308°W)
Time: 05:56:58
(UTC-08:00)

N. Korean satellite - Pass Details

Date: 06 December 2022
Orbit: 407 x 441 km, 97.3° (Epoch: 05 February)

Event Time Altitude Azimuth Distance (km) Brightness Sun altitude
Rises 06:32:27 0° 359° (N) 2,519 10.0 -11.3°
Reaches altitude 10° 06:34:55 10° 341° (NNW) 1,630 8.8 -10.9°
Maximum altitude 06:37:27 19° 294° (WNW) 1,164 7.8 -10.5°
Drops below altitude 10° 06:39:57 10° 248° (WSW) 1,602 8.8 -10.1°
Sets 06:42:21 0° 230° (SW) 2,459 9.9 -9.8°
